GW1468 Weather Reports


time (UTC)temp
C
wind
direction
speed
KPH
gust
KPH
rain 1hr
cm
rain 24hr
cm
rain mn
cm
humidity
%
barometer
mb
20260510204552 26 186 1.6 4.8 0.00 0.00 0.00 42
20260510203930 25 265 4.8 9.7 0.00 0.00 0.00 45
20260510203333 25 187 4.8 9.7 0.00 0.00 0.00 45
20260510202745 25 194 3.2 6.4 0.00 0.00 0.00 45
20260510202136 26 169 3.2 6.4 0.00 0.00 0.00 46
20260510200912 25 251 6.4 12.9 0.00 0.00 0.00 46
20260510200339 25 218 1.6 4.8 0.00 0.00 0.00 50
20260510195720 24 305 3.2 4.8 0.00 0.00 0.00 53
20260510195153 24 166 4.8 6.4 0.00 0.00 0.00 47
20260510194535 25 251 8.0 11.3 0.00 0.00 0.00 45
20260510193952 26 198 6.4 6.4 0.00 0.00 0.00 43
20260510193321 25 191 3.2 6.4 0.00 0.00 0.00 47
20260510192731 25 192 3.2 3.2 0.00 0.00 0.00 46
20260510192132 24 238 0.0 1.6 0.00 0.00 0.00 56
20260510191534 25 25 1.6 1.6 0.00 0.00 0.00 48
20260510190926 25 335 0.0 1.6 0.00 0.00 0.00 53
20260510190319 25 182 1.6 3.2 0.00 0.00 0.00 47
20260510185121 24 175 3.2 4.8 0.00 0.00 0.00 46
20260510184544 24 167 3.2 6.4 0.00 0.00 0.00 46
20260510183943 24 252 1.6 3.2 0.00 0.00 0.00 47
20260510183349 24 165 6.4 6.4 0.00 0.00 0.00 44
20260510182738 25 183 3.2 9.7 0.00 0.00 0.00 44
20260510182115 26 205 6.4 12.9 0.00 0.00 0.00 44
20260510181544 25 243 3.2 12.9 0.00 0.00 0.00 41
20260510180934 25 165 3.2 9.7 0.00 0.00 0.00 44
20260510180317 26 177 4.8 9.7 0.00 0.00 0.00 41
20260510175741 25 327 0.0 3.2 0.00 0.00 0.00 43
20260510175152 25 28 3.2 6.4 0.00 0.00 0.00 42
20260510173950 25 207 4.8 6.4 0.00 0.00 0.00 42
20260510173326 25 226 3.2 6.4 0.00 0.00 0.00 44
20260510172724 24 227 9.7 16.1 0.00 0.00 0.00 45
20260510172111 25 171 6.4 12.9 0.00 0.00 0.00 43
20260510170336 24 174 3.2 12.9 0.00 0.00 0.00 48
20260510165751 25 251 3.2 11.3 0.00 0.00 0.00 49
20260510164545 24 182 4.8 9.7 0.00 0.00 0.00 48
20260510163944 24 220 4.8 12.9 0.00 0.00 0.00 49
20260510162724 23 184 3.2 3.2 0.00 0.00 0.00 49
20260510161529 23 190 3.2 9.7 0.00 0.00 0.00 48
20260510160950 23 197 3.2 11.3 0.00 0.00 0.00 50
20260510155736 23 257 3.2 4.8 0.00 0.00 0.00 50
20260510155150 22 261 1.6 1.6 0.00 0.00 0.00 52
20260510154523 23 310 6.4 6.4 0.00 0.00 0.00 53
20260510153949 22 243 1.6 6.4 0.00 0.00 0.00 55
20260510153322 23 188 6.4 12.9 0.00 0.00 0.00 52
20260510152733 22 180 3.2 19.3 0.00 0.00 0.00 56
20260510152149 22 268 6.4 14.5 0.00 0.00 0.00 54
20260510151535 22 172 4.8 9.7 0.00 0.00 0.00 55
20260510150914 21 198 14.5 16.1 0.00 0.00 0.00 57
20260510150339 21 237 3.2 9.7 0.00 0.00 0.00 58
20260510145717 21 198 6.4 11.3 0.00 0.00 0.00 60
20260510145138 21 151 6.4 9.7 0.00 0.00 0.00 62
20260510144510 20 211 3.2 14.5 0.00 0.00 0.00 62
20260510143926 20 177 1.6 11.3 0.00 0.00 0.00 64
20260510143335 20 237 3.2 12.9 0.00 0.00 0.00 68
20260510142713 18 178 3.2 6.4 0.00 0.00 0.00 70
20260510142128 18 191 1.6 6.4 0.00 0.00 0.00 73
20260510140929 16 300 0.0 1.6 0.00 0.00 0.00 83
20260510135715 15 303 1.6 1.6 0.00 0.00 0.00 85
20260510135116 15 308 0.0 1.6 0.00 0.00 0.00 88
20260510134511 14 292 0.0 1.6 0.00 0.00 0.00 88
20260510133348 13 174 0.0 1.6 0.00 0.00 0.00 91
20260510132749 12 355 0.0 1.6 0.00 0.00 0.00 93
20260510131517 11 304 0.0 1.6 0.00 0.00 0.00 99
20260510130920 10 311 0.0 0.0 0.00 0.00 0.00 99
20260510130331 10 311 0.0 0.0 0.00 0.00 0.00 99
20260510125751 10 306 0.0 0.0 0.00 0.00 0.00 99
20260510125144 9 290 0.0 1.6 0.00 0.00 0.00 99
20260510123308 8 328 0.0 0.0 0.00 0.00 0.00 99
20260510122729 8 328 1.6 1.6 0.00 0.00 0.00 99
20260510122133 7 342 0.0 1.6 0.00 0.00 0.00 99
20260510121511 7 342 0.0 1.6 0.00 0.00 0.00 99
20260510120949 7 344 0.0 1.6 0.00 0.00 0.00 99
20260510115743 7 349 0.0 0.0 0.00 0.00 0.00 99
20260510114518 6 4 0.0 0.0 0.00 0.00 0.00 99
20260510113914 6 13 0.0 0.0 0.00 0.00 0.00 99
20260510112710 6 13 0.0 0.0 0.00 0.00 0.00 99
20260510112131 6 13 0.0 0.0 0.00 0.00 0.00 99
20260510111532 6 13 0.0 0.0 0.00 0.00 0.00 99
20260510110933 6 13 0.0 0.0 0.00 0.00 0.00 99
20260510110312 6 13 0.0 0.0 0.00 0.00 0.00 99
20260510105747 6 13 0.0 0.0 0.00 0.00 0.00 99
20260510105143 6 13 0.0 0.0 0.00 0.00 0.00 99
20260510103934 6 13 0.0 0.0 0.00 0.00 0.00 99
20260510103324 6 13 0.0 0.0 0.00 0.00 0.00 99
20260510102717 6 13 0.0 0.0 0.00 0.00 0.00 99
20260510102142 6 13 0.0 0.0 0.00 0.00 0.00 99
20260510101510 6 13 0.0 0.0 0.00 0.00 0.00 99
20260510100351 6 13 0.0 0.0 0.00 0.00 0.00 99
20260510095710 6 13 0.0 0.0 0.00 0.00 0.00 99
20260510095139 6 13 0.0 0.0 0.00 0.00 0.00 99
20260510094539 6 13 0.0 0.0 0.00 0.00 0.00 99
20260510093908 6 13 0.0 0.0 0.00 0.00 0.00 99
20260510093327 6 14 0.0 0.0 0.00 0.00 0.00 99
20260510092725 6 12 0.0 0.0 0.00 0.00 0.00 99
20260510092129 6 12 0.0 0.0 0.00 0.00 0.00 99
20260510091537 6 12 0.0 0.0 0.00 0.00 0.00 99
20260510090909 6 12 0.0 0.0 0.00 0.00 0.00 99
20260510090341 6 12 0.0 0.0 0.00 0.00 0.00 99
20260510085716 6 12 0.0 0.0 0.00 0.00 0.00 99
20260510083948 6 12 0.0 0.0 0.00 0.00 0.00 99
20260510083352 6 12 0.0 0.0 0.00 0.00 0.00 99
20260510082744 6 12 0.0 0.0 0.00 0.00 0.00 99
20260510082119 6 12 0.0 0.0 0.00 0.00 0.00 99
20260510081549 6 12 0.0 0.0 0.00 0.00 0.00 99
20260510080918 6 12 0.0 0.0 0.00 0.00 0.00 99
20260510080327 6 12 0.0 0.0 0.00 0.00 0.00 99
20260510075750 6 12 0.0 0.0 0.00 0.00 0.00 99
20260510074542 6 12 0.0 0.0 0.00 0.00 0.00 99
20260510073942 6 12 0.0 0.0 0.00 0.00 0.00 99
20260510073347 6 12 0.0 0.0 0.00 0.00 0.00 99
20260510072734 6 12 0.0 0.0 0.00 0.00 0.00 99
20260510072126 7 12 0.0 0.0 0.00 0.00 0.00 99
20260510071546 7 12 0.0 0.0 0.00 0.00 0.00 99
20260510070925 7 12 0.0 0.0 0.00 0.00 0.00 99
20260510070312 7 12 0.0 0.0 0.00 0.00 0.00 99
20260510065734 7 12 0.0 0.0 0.00 0.00 0.00 99
20260510065141 7 12 0.0 0.0 0.00 0.00 0.00 99
20260510063923 7 12 0.0 0.0 0.00 0.00 0.00 99
20260510063330 7 12 0.0 0.0 0.00 0.00 0.00 99
20260510062709 7 12 0.0 0.0 0.00 0.00 0.00 99
20260510062146 7 340 0.0 1.6 0.00 0.00 0.00 99
20260510061534 7 340 0.0 0.0 0.00 0.00 0.00 99
20260510060949 7 340 0.0 0.0 0.00 0.00 0.00 99
20260510060341 7 340 0.0 0.0 0.00 0.00 0.00 99
20260510055725 7 340 0.0 0.0 0.00 0.00 0.00 99
20260510055118 7 340 0.0 0.0 0.00 0.00 0.00 99
20260510054538 7 339 0.0 1.6 0.00 0.00 0.00 99
20260510053314 7 325 0.0 0.0 0.00 0.00 0.00 99
20260510052149 8 325 0.0 0.0 0.00 0.00 0.00 99
20260510051548 8 325 0.0 0.0 0.00 0.00 0.00 99
20260510050912 8 324 0.0 0.0 0.00 0.00 0.00 99
20260510050332 8 325 0.0 0.0 0.00 0.00 0.00 99
20260510045721 8 313 0.0 0.0 0.00 0.00 0.00 99
20260510045110 8 313 0.0 0.0 0.00 0.00 0.00 99
20260510043931 8 313 0.0 0.0 0.00 0.00 0.00 99
20260510043338 8 313 0.0 0.0 0.00 0.00 0.00 99
20260510042711 8 313 0.0 0.0 0.00 0.00 0.00 99
20260510042145 8 313 0.0 0.0 0.00 0.00 0.00 99
20260510041533 8 313 0.0 0.0 0.00 0.00 0.00 99
20260510040924 9 313 0.0 0.0 0.00 0.00 0.00 99
20260510040343 9 313 0.0 0.0 0.00 0.00 0.00 99
20260510035747 9 313 0.0 0.0 0.00 0.00 0.00 99
20260510035123 9 313 0.0 0.0 0.00 0.00 0.00 99
20260510034541 9 313 0.0 0.0 0.00 0.00 0.00 99
20260510033909 9 313 0.0 0.0 0.00 0.00 0.00 99
20260510033316 10 313 0.0 0.0 0.00 0.00 0.00 99
20260510032752 10 313 0.0 0.0 0.00 0.00 0.00 99
20260510032147 10 313 0.0 0.0 0.00 0.00 0.00 99
20260510031524 10 313 0.0 0.0 0.00 0.00 0.00 99
20260510030919 10 313 0.0 0.0 0.00 0.00 0.00 99
20260510030328 10 313 0.0 0.0 0.00 0.00 0.00 99
20260510025732 10 313 0.0 0.0 0.00 0.00 0.00 99
20260510025122 10 313 0.0 0.0 0.00 0.00 0.00 99
20260510023940 10 313 0.0 0.0 0.00 0.00 0.00 99
20260510022739 11 313 0.0 0.0 0.00 0.00 0.00 99
20260510021510 11 313 0.0 0.0 0.00 0.00 0.00 98
20260510020952 11 313 0.0 0.0 0.00 0.00 0.00 97
20260510015740 11 313 0.0 0.0 0.00 0.00 0.00 97
20260510015143 11 313 0.0 0.0 0.00 0.00 0.00 97
20260510014511 11 313 0.0 0.0 0.00 0.00 0.00 96
20260510013946 12 313 0.0 0.0 0.00 0.00 0.00 96
20260510012725 12 247 0.0 0.0 0.00 0.00 0.00 96
20260510012131 12 247 0.0 0.0 0.00 0.00 0.00 95
20260510011556 12 247 0.0 0.0 0.00 0.00 0.00 95
20260510010951 12 247 0.0 0.0 0.00 0.00 0.00 94
20260510010348 12 247 0.0 0.0 0.00 0.00 0.00 93
20260510005143 12 247 0.0 1.6 0.00 0.00 0.00 92
20260510004550 13 246 0.0 0.0 0.00 0.00 0.00 91
20260510003307 13 246 0.0 0.0 0.00 0.00 0.00 89
20260510002716 13 247 0.0 0.0 0.00 0.00 0.00 89
20260510001511 14 247 0.0 0.0 0.00 0.00 0.00 86
20260510000943 15 247 0.0 0.0 0.00 0.00 0.00 86
20260510000349 15 247 0.0 0.0 0.00 0.00 0.00 84
20260509235710 15 247 0.0 0.0 0.00 0.00 0.00 82
20260509235126 16 247 0.0 0.0 0.00 0.00 0.00 80
20260509234543 16 247 0.0 1.6 0.00 0.00 0.00 79
20260509233949 17 247 0.0 0.0 0.00 0.00 0.00 76
20260509233339 17 247 0.0 1.6 0.00 0.00 0.00 74
20260509232130 19 247 0.0 0.0 0.00 0.00 0.00 68
20260509231509 19 250 0.0 1.6 0.00 0.00 0.00 66
20260509230951 20 249 0.0 1.6 0.00 0.00 0.00 67
20260509230332 20 250 0.0 3.2 0.00 0.00 0.00 68
20260509225146 20 239 1.6 1.6 0.00 0.00 0.00 62
20260509224535 20 216 1.6 1.6 0.00 0.00 0.00 58
20260509223928 20 246 0.0 1.6 0.00 0.00 0.00 61
20260509223343 21 296 1.6 3.2 0.00 0.00 0.00 55
20260509222130 21 225 3.2 4.8 0.00 0.00 0.00 56
20260509220917 21 64 1.6 4.8 0.00 0.00 0.00 51
20260509220325 21 244 3.2 4.8 0.00 0.00 0.00 52
20260509215723 22 177 3.2 11.3 0.00 0.00 0.00 53
20260509215134 22 213 3.2 4.8 0.00 0.00 0.00 52
20260509214520 21 194 1.6 12.9 0.00 0.00 0.00 52
20260509213334 21 227 1.6 11.3 0.00 0.00 0.00 57
20260509212738 21 239 1.6 4.8 0.00 0.00 0.00 56
20260509212145 20 240 3.2 4.8 0.00 0.00 0.00 55
20260509211542 20 293 6.4 6.4 0.00 0.00 0.00 56
20260509210931 20 212 3.2 11.3 0.00 0.00 0.00 55
20260509210318 20 158 4.8 14.5 0.00 0.00 0.00 55
20260509205747 20 266 1.6 11.3 0.00 0.00 0.00 56
20260509205134 20 252 4.8 9.7 0.00 0.00 0.00 56